Regional Weather Roundup
Issued by NWS

Home | Current Version | Previous Version | Text Only | Print | Product List | Glossary Off
Versions: 1 2 3 4 5 6 7 8 9 10 11 12 13 14 15 16 17 18 19 20 21 22 23 24 25 26 27 28 29 30 31 32 33 34 35 36 37 38 39 40 41 42 43 44 45 46 47 48 49 50

061
ASUS43 KOAX 210902
RWRNE

WEATHER ROUNDUP FOR NEBRASKA
NATIONAL WEATHER SERVICE OMAHA NE
300 AM CST SAT JAN 21 2017

NOTES: SATELLITE DATA IS BEING USED TO AUGMENT CLOUD COVER ABOVE
       12000 FEET.
       "FAIR" INDICATES FEW OR NO CLOUDS BELOW 12,000 FEET WITH NO
       SIGNIFICANT WEATHER AND/OR OBSTRUCTIONS TO VISIBILITY.

  * THESE STATIONS DO NOT REPORT WEATHER SUCH AS RAIN...SNOW OR FOG.

NEZ001>004-019>022-054>056-211000-
NEBRASKA PANHANDLE

CITY           SKY/WX    TMP DP  RH WIND       PRES   REMARKS
SCOTTSBLUFF    CLEAR     26  21  81 N7        29.41R WCI  18
ALLIANCE       CLOUDY    24  22  91 W8        29.38R WCI  15
CHADRON        CLOUDY    33  29  85 W12       29.39R WCI  24
KIMBALL        CLEAR     28  22  80 W7        29.41R WCI  20
SIDNEY         CLEAR     28  21  75 W10       29.42R WCI  19
$$

NEZ057>060-069>072-079>082-211000-
SOUTHWEST NEBRASKA

CITY           SKY/WX    TMP DP  RH WIND       PRES   REMARKS
NORTH PLATTE   FOG       26  24  92 NW5       29.40R VSB 1/4 WCI  20
IMPERIAL       CLOUDY    32  29  88 W8        29.42S WCI  25
LEXINGTON      CLOUDY    35  32  90 W6        29.40S WCI  30
MCCOOK         CLEAR     31  31 100 SW8       29.43R WCI  23
OGALLALA       CLOUDY    30  29  96 SW3       29.41S
$$

NEZ005>010-023>029-035>040-094-211000-
NORTH CENTRAL NEBRASKA

CITY           SKY/WX    TMP DP  RH WIND       PRES   REMARKS
VALENTINE      CLOUDY    30  27  88 SW8       29.34R WCI  22
AINSWORTH      CLOUDY    32  32  97 W6        29.34S WCI  27
BROKEN BOW     CLOUDY    37  34  89 W7        29.36S WCI  32
O`NEILL        CLOUDY    35  33  94 W6        29.35R WCI  30
ORD            CLOUDY    35  31  85 CALM      29.36R
THEDFORD       MOCLDY    35  34  96 NW3       29.37R
$$

NEZ041-046>049-061>064-073>077-083>087-211000-
SOUTH CENTRAL NEBRASKA

CITY           SKY/WX    TMP DP  RH WIND       PRES   REMARKS
GRAND ISLAND   CLOUDY    35  35 100 W9        29.39R WCI  28
AURORA         CLOUDY    33  33 100 W7        29.39S FOG     WCI  27
HASTINGS       CLOUDY    36  33  89 W9        29.40R WCI  29
HEBRON         SNOW      35  35 100 SW6       29.42R VSB 1/4 WCI  30
HOLDREGE       CLOUDY    34  33  98 W8        29.40S WCI  27
KEARNEY *      PTCLDY    34 -15  12 W6        29.40S WCI  29
YORK           PTCLDY    34  34 100 SW6       29.39S FOG     WCI  29
$$

NEZ011>018-030>034-042>045-211000-
NORTHEAST NEBRASKA

CITY           SKY/WX    TMP DP  RH WIND       PRES   REMARKS
NORFOLK        CLOUDY    37  36  96 SW6       29.35S WCI  32
ALBION         CLOUDY   N/A N/A N/A NW5       29.36S HAZE
BLAIR          FOG       39  39  99 S6        29.39R VSB 1/4
FREMONT        CLOUDY    39  39 100 S3        29.39S FOG
TEKAMAH        FOG       36  35  96 CALM      29.38S VSB 1/4
WAYNE          FOG       36  36  99 CALM      29.36S VSB 1/4
$$

NEZ050>053-065>068-078-088>093-211000-
SOUTHEAST NEBRASKA

CITY           SKY/WX    TMP DP  RH WIND       PRES   REMARKS
LINCOLN        CLOUDY    40  39  97 SW6       29.41S
OMAHA EPPLEY   FOG       41  38  89 S6        29.39S VSB 1/2
BEATRICE       CLOUDY    40  40 100 SW7       29.41S FOG
FALLS CITY     MOCLDY    43  42  97 SW8       29.41S
NEBRASKA CITY  FOG       41  41 100 SW8       29.40S VSB 3/4
PLATTSMOUTH    FOG       42  40  93 SW7       29.39S VSB 1/2
$$

NEZ044-045-051>053-067-211000-
OMAHA AREA

CITY           SKY/WX    TMP DP  RH WIND       PRES   REMARKS
OMAHA EPPLEY   FOG       41  38  89 S6        29.39S VSB 1/2
BLAIR          FOG       39  39  99 S6        29.39R VSB 1/4
FREMONT        CLOUDY    39  39 100 S3        29.39S FOG
MILLARD        FOG       42  42  97 CALM      29.40S VSB 3/4
OFFUTT AFB     FOG       41  41 100 CALM      29.39R VSB 1/2
PLATTSMOUTH    FOG       42  40  93 SW7       29.39S VSB 1/2
WAHOO          FOG       37  36  98 CALM      29.39S VSB 1/2
$$




USA.gov is the U.S. government's official web portal to all federal, state and local government web resources and services.